Location: Unspecified
(0.0000°N, 0.0000°E)
Time: 22:27:30
(UTC+02:00)

USA 116 - Visible Passes

Search period start: 28 June 2016 00:00
Search period end: 08 July 2016 00:00
Orbit: 405 x 834 km, 97.9° (Epoch: 18 November)

Date Brightness Start Highest point End Pass type
(mag) Time Alt. Az. Time Alt. Az. Time Alt. Az.
28 Jun 4.1 06:59:49 10° S 07:04:38 62° WSW 07:08:53 10° NNW visible
29 Jun 4.5 07:14:04 10° S 07:18:32 39° WSW 07:22:32 10° NW visible
30 Jun 7.0 05:54:17 10° ESE 05:56:44 14° E 05:59:01 10° NE visible
30 Jun 5.1 07:28:35 10° SSW 07:32:25 25° WSW 07:35:55 10° NW visible
01 Jul 6.4 06:07:14 10° SE 06:10:44 22° E 06:13:56 10° NNE visible
02 Jul 5.6 06:20:38 10° SE 06:24:45 33° E 06:28:25 10° NNE visible
03 Jul 4.7 06:34:18 10° SSE 06:38:44 54° E 06:42:36 10° N visible
04 Jul 3.8 06:48:11 10° SSE 06:52:41 88° E 06:56:36 10° N visible
05 Jul 3.9 07:02:15 10° S 07:06:36 55° WSW 07:10:24 10° NNW visible
06 Jul 4.5 07:16:34 10° SSW 07:20:29 33° WSW 07:23:59 10° NW visible
07 Jul 7.0 05:56:50 10° ESE 05:58:37 13° E 06:00:20 10° NE visible
07 Jul 5.0 07:31:08 10° SSW 07:34:20 21° WSW 07:37:15 10° NW visible
